Location: Recife
(8.0585°S, 34.8848°W)
Time: 19:05:18
(UTC-03:00)

Hubble Space Telescope - Pass Details

Date: 01 October 2021
Orbit: 535 x 539 km, 28.5° (Epoch: 24 October)

Event Time Altitude Azimuth Distance (km) Brightness Sun altitude
Exits shadow 03:27:08 53° 43° (NE) 659 1.3 -24.7°
Drops below altitude 10° 03:30:22 10° 57° (ENE) 1,779 4.0 -23.9°
Sets 03:32:37 0° 58° (ENE) 2,666 5.1 -23.3°
